Powrót do katalogu

SL-24 DEB

AktywnyPO
NORAD 33318·DEBRIS·🇷🇺 Russia

Wystrzelony Aug 29, 2008 z Baikonur Cosmodrome

Loading…

Następne Przeloty (najbliższe 24 godziny)

TLE

ŚwieżeSource: Space-Track

Epoka: Sep 14, 2026, 14:44 UTC

1 33318U 08040G   26257.61452247  .00010109  00000-0  38432-3 0  9997
2 33318  97.9937 204.9548 0012258 138.3244 221.8929 15.26941764983366

Śledź SL-24 DEB w czasie rzeczywistym z AllMySat

Download on the App Store